This is the latest recevied weather packets stored in our database for station/object DB7GV-8. If no packets are shown the sender has not sent any weather packets the latest 10 day(s).
| Time | Temp. | Humidity | Pressure | Rain* | Wind** | Luminosity | Snow |
|---|---|---|---|---|---|---|---|
| 1777451453 | 21.67° C | 31% | 1019.5 hPa | - | - | - | - |
| 1777450547 | 22.78° C | 28% | 1019.5 hPa | - | - | - | - |
| 1777449641 | 32.78° C | 23% | 1019.7 hPa | - | - | - | - |
| 1777448736 | 17.78° C | 43% | 1019.6 hPa | - | - | - | - |
| 1777447831 | 15° C | 49% | 1019.5 hPa | - | - | - | - |
| 1777446925 | 13.89° C | 50% | 1019.4 hPa | - | - | - | - |
| 1777446020 | 13.33° C | 51% | 1019.3 hPa | - | - | - | - |
| 1777445115 | 13.33° C | 52% | 1019.3 hPa | - | - | - | - |
| 1777442398 | 12.78° C | 52% | 1019.1 hPa | - | - | - | - |
| 1777441493 | 12.78° C | 52% | 1018.7 hPa | - | - | - | - |
| 1777440590 | 12.78° C | 52% | 1018.6 hPa | - | - | - | - |
| 1777439682 | 12.22° C | 52% | 1018.6 hPa | - | - | - | - |
| 1777438776 | 12.22° C | 52% | 1018.3 hPa | - | - | - | - |
| 1777437871 | 12.22° C | 52% | 1018.4 hPa | - | - | - | - |
| 1777436965 | 12.22° C | 53% | 1018.2 hPa | - | - | - | - |
| 1777436060 | 12.22° C | 52% | 1018.1 hPa | - | - | - | - |
| 1777435155 | 12.78° C | 51% | 1018 hPa | - | - | - | - |
| 1777434250 | 12.78° C | 51% | 1017.8 hPa | - | - | - | - |
| 1777433344 | 12.78° C | 52% | 1017.9 hPa | - | - | - | - |
| 1777432439 | 12.78° C | 52% | 1017.9 hPa | - | - | - | - |
| 1777431533 | 13.33° C | 49% | 1017.6 hPa | - | - | - | - |
| 1777429723 | 13.33° C | 47% | 1017.4 hPa | - | - | - | - |
| 1777428816 | 13.89° C | 47% | 1017.2 hPa | - | - | - | - |
| 1777427911 | 13.89° C | 47% | 1017.2 hPa | - | - | - | - |
| 1777427006 | 13.89° C | 48% | 1017 hPa | - | - | - | - |
* Rain since midnight (hover to see other rain measurements)
** Current wind speed in m/s (hover to see current wind gust speed)